Tracking 20037 objects as of 17-Nov-2019
Live streaming from Space Station
objects crossing your sky now

SL-8 R/B

Track SL-8 R/B now!
10-day predictions


NORAD ID: 21108
Int'l Code: 1991-009J
Perigee: 1,466.9 km
Apogee: 1,745.7 km
Inclination: 74.1 °
Period: 118.2 minutes
Semi major axis: 7977 km
RCS: 5.6696 m2 (large)
Launch date: February 12, 1991
Source: Commonwealth of Independent States (former USSR) (CIS)
Launch site: PLESETSK MISSILE AND SPACE COMPLEX (PKMTR)

Note: This is a ROCKET BODY
aabbcc
Your satellite tracking list
Your tracking list is empty




NASA's NSSDC Master Catalog

Two Line Element Set (TLE):
1 21108U 91009J   19320.74456596 -.00000018 +00000-0 -44433-4 0  9995
2 21108 074.0564 011.3307 0174746 125.7146 012.3808 12.18473984172773
Source of the keplerian elements: AFSPC